Location: Belloy
(55.7522°N, 118.2333°W)
Time: 23:25:34
(UTC+00:00)

Envisat - Pass Details

Date: 02 December 2021
Orbit: 764 x 766 km, 98.2° (Epoch: 27 January)

Event Time Altitude Azimuth Distance (km) Brightness Sun altitude
Rises 15:03:06 0° 10° (N) 3,250 6.1 -7.5°
Reaches altitude 10° 15:05:59 10° 353° (N) 2,319 5.2 -7.1°
Maximum altitude 15:09:31 19° 309° (NW) 1,756 4.3 -6.7°
Drops below altitude 10° 15:13:03 10° 265° (W) 2,309 5.0 -6.3°
Sets 15:15:55 0° 249° (WSW) 3,231 5.9 -5.9°
